This demonstration page uses our WeatherBlox Daily Observations layout. Learn more.

Left ArrowRight Arrow

30.00354, -91.81873

Hourly Observations for October 7, 2022

Temp ( °F °C ) Dew Point ( °F °C ) Humidity (%) Winds ( mph kmh ) Pressure ( in mb ) Visibility ( mi km ) Precip ( " mm )
12:53 am 00:53 Clear 59 15 55 12.8 87 87 Calm 30.13 1020 10 16 0.00 0.00
1:53 am 01:53 Clear 58 14.4 54 12.2 87 87 Calm 30.13 1020 10 16 0.00 0.00
2:53 am 02:53 Clear 58 14.4 54 12.2 87 87 Calm 30.13 1020 10 16 0.00 0.00
3:53 am 03:53 Clear 57 13.9 54 12.2 89 89 Calm 30.13 1020 10 16 0.00 0.00
4:53 am 04:53 Clear 59 15 55 12.8 87 87 Calm 30.14 1021 10 16 0.00 0.00
5:53 am 05:53 Clear 59 15 56 13.3 90 90 Calm 30.14 1021 9 14 0.00 0.00
6:53 am 06:53 Clear with Mist and Fog 55 12.8 54 12.2 96 96 Calm 30.16 1021 4 6 0.00 0.00
7:53 am 07:53 Sunny with Mist and Fog 60 15.6 58 14.4 93 93 Calm 30.18 1022 5 8 0.00 0.00
8:53 am 08:53 Sunny 71 21.7 61 16.1 70 70 N 3 6 30.19 1022 9 14 0.00 0.00
9:53 am 09:53 Sunny 78 25.6 59 15 52 52 NNW 3 6 30.20 1023 10 16 0.00 0.00
10:53 am 10:53 Sunny 82 27.8 55 12.8 40 40 VRB 5 7 30.19 1023 10 16 0.00 0.00
11:53 am 11:53 Sunny 86 30 51 10.6 30 30 Calm 30.19 1022 10 16 0.00 0.00
12:53 pm 12:53 Sunny 88 31.1 51 10.6 28 28 NNE 7 11 30.16 1021 10 16 0.00 0.00
1:53 pm 13:53 Sunny 89 31.7 52 11.1 28 28 N 3 6 30.13 1020 10 16 0.00 0.00
2:53 pm 14:53 Sunny 89 31.7 53 11.7 29 29 E 8 13 30.11 1020 10 16 0.00 0.00
3:53 pm 15:53 Sunny 89 31.7 52 11.1 28 28 VRB 3 6 30.10 1019 10 16 0.00 0.00
4:53 pm 16:53 Sunny 89 31.7 52 11.1 28 28 NE 7 11 30.09 1019 10 16 0.00 0.00
5:53 pm 17:53 Sunny 84 28.9 55 12.8 37 37 E 6 9 30.10 1019 10 16 0.00 0.00
6:53 pm 18:53 Clear 79 26.1 58 14.4 49 49 Calm 30.10 1019 10 16 0.00 0.00
7:53 pm 19:53 Clear 75 23.9 61 16.1 62 62 WSW 5 7 30.12 1020 10 16 0.00 0.00
8:53 pm 20:53 Clear 74 23.3 61 16.1 64 64 W 5 7 30.14 1021 10 16 0.00 0.00
9:53 pm 21:53 Clear 74 23.3 61 16.1 64 64 Calm 30.15 1021 10 16 0.00 0.00
10:53 pm 22:53 Clear 72 22.2 64 17.8 76 76 Calm 30.16 1021 10 16 0.00 0.00
11:53 pm 23:53 Clear 72 22.2 63 17.2 73 73 N 3 6 30.16 1021 10 16 0.00 0.00

Powered by AerisWeather